Find Starlink 30353

NORAD ID: 58113 Int'l Des: 2023-161 Owner: SPXS Country: US Constellation: starlink operational
LEOCIRCULAR

Live-Position

3D-Globus wird geladen...

Über Starlink 30353

Beschreibung wird geladen...

Nächste Überflüge

Passes for default location (London). Set your location on the main map for personalized predictions.

Höhenverlauf

Loading altitude history...

Zweizeiliger Elementsatz

1 58113U 23161S 26138.34762448 .00000051 00000-0 13856-4 0 9992
2 58113 53.1592 202.1850 0000927 107.1137 252.9966 15.30193520145087
Epoch: 18. Mai 2026 • Age: 29 hours

Aktueller Status

Höhe 481.2 km
Geschwindigkeit 7.63 km/s
Subsatellitenpunkt 53.28°N, 142.27°W
Startdatum 21. Okt. 2023
Alter 2.5 years
Typ internet

Technische Details

Klassifizierung Payload
Masse 730.00 kg
Trockenmasse 700.00 kg
Gesamtmasse 730.00 kg
Länge 0.30 m
Durchmesser 4.10 m
Spannweite 29.00 m
Form Box + pan
Hersteller SPXS
Bus-Typ Starlink V2M
Phasenstatus In Orbit
Besitzer/Staat SPXS/US

Most Searched